SCP
0 0 0 0 0 0 0 0 0 0 0 0 0 -0 -0 -0 -0 -0 0 0 0 0 0 0 0 0 0 0 -0 -0 -0 -0 -0 -0 -0 -0 -0 -0 -0 -0 -0 -0 -0 -0 -0 -0 -0 -0 -0
0 0 0 0 0 0 0 0 0 0 0 0 0 0 -0 -0 0 -0 -0 0 0 0 0 0 0 0 0 0 -0 -0 -0 -0 -0 -0 -0 -0 -0 -0 -0 -0 -0 -0 -0 -0 -0 -0 -0 -0 -0
0 0 0 0 0 0 0 0 0 0 0 -0 -0 0 -0 -0 0 -0 0 0 0 0 0 0 0 0 0 0 -0 -0 0 0 -0 -0 -0 -0 -0 0 0 -0 -0 -0 -0 -0 -0 -0 -0 0 0
0 0 0 0 0 0 0 0 0 0 -0 -0 -0 -0 0 0 -0 -0 -0 -0 0 0 0 0 0 0 0 0 -0 -0 -0 -0 0 0 0 -0 0 0 0 -0 -0 -0 -0 -0 -0 -0 -0 0 0
0 0 0 0 0 0 0 0 0 0 -0 -0 -0 -0 -0 0 0 -0 -0 0 0 0 0 0 0 0 0 0 0 -0 -0 -0 -0 0 0 0 0 0 0 -0 -0 -0 -0 -0 -0 -0 -0 0 0
0 0 0 0 0 0 0 0 0 -0 -0 -0 -0 -0 0 0 -0 0 0 0 0 0 0 0 0 0 0 0 -0 -0 -0 -0 -0 0 0 0 0 0 0 0 -0 -0 -0 -0 -0 -0 -0 0 0
0 0 0 0 0 0 0 0 0 -0 -0 0 0 0 0 0 0 0 0 0 0 0 0 0 0 0 0 -0 -0 -0 -0 -0 0 0 0 0 0 0 0 0 0 -0 -0 -0 -0 -0 -0 -0 0
0 0 0 0 0 0 0 0 0 0 0 0 0 0 0 0 0 0 0 0 0 0 0 0 0 0 0 0 -0 -0 -0 -0 0 0 0 0 0 0 0 0 0 -0 -0 -0 -0 -0 -0 -0 0
0 0 0 0 0 0 0 0 0 0 0 0 0 0 0 0 0 0 0 0 0 0 0 0 0 0 0 0 -0 -0 -0 -0 0 0 0 0 0 0 0 0 0 0 -0 -0 -0 -0 -0 -0 0
0 0 0 0 0 0 0 0 0 0 0 0 0 0 0 0 0 0 0 0 0 0 0 0 0 0 0 0 -0 -0 -0 0 0 0 0 0 0 0 0 0 0 0 -0 -0 -0 -0 -0 0 -0
0 0 0 0 0 0 0 0 0 0 0 0 0 0 0 0 0 0 0 0 0 0 0 0 0 0 0 0 -0 0 0 0 0 0 0 0 0 0 0 0 0 0 0 0 0 0 0 0 0
0 0 0 0 0 0 0 0 0 0 0 0 0 0 0 0 0 0 0 0 0 0 0 0 0 -0 -0 -0 0 -0 0 0 0 0 0 0 0 0 0 0 0 0 0 0 0 0 0 0 0
0 0 0 0 0 0 0 0 0 0 0 0 0 0 0 0 0 0 0 0 0 0 0 0 0 -0 0 0 -0 0 0 0 0 0 0 0 0 0 0 0 0 0 0 0 0 0 0 0 0
0 0 0 0 0 0 0 0 0 0 0 0 0 0 0 0 0 0 0 0 0 0 0 0 0 0 0 0 -0 0 0 0 0 0 0 0 0 0 0 0 0 0 0 0 0 0 0 0 0
0 0 0 0 0 0 0 0 0 0 0 0 0 0 0 0 0 0 0 0 0 0 0 0 0 0 0 0 0 0 0 0 0 0 0 0 0 0 0 0 0 0 0 0 0 0 0 0 0
0 0 0 0 0 0 0 0 0 0 0 0 0 0 0 0 0 0 0 0 0 0 0 0 0 0 0 0 0 0 0 0 0 0 0 0 0 0 0 0 0 0 0 0 0 0 0 0 0
0 0 0 0 0 0 0 0 0 0 0 0 0 0 0 0 0 0 0 0 0 0 0 0 0 0 0 0 0 0 0 0 0 0 0 0 0 0 0 0 0 0 0 0 0 0 0 0 0
0 0 0 0 0 0 0 0 0 0 0 0 0 0 0 0 0 0 0 0 0 0 0 0 0 0 0 0 0 0 0 0 0 0 0 0 0 0 0 0 0 0 0 0 0 0 0 0 0
0 0 0 0 0 0 0 0 0 0 0 0 0 0 0 0 0 0 0 0 0 0 0 0 0 0 0 0 0 0 0 0 0 0 0 0 0 0 0 0 0 0 0 0 0 0 0 0 0
0 0 0 0 0 0 0 0 0 -0 0 0 0 0 0 0 -0 0 0 0 0 0 0 0 0 0 0 0 0 0 0 0 0 0 0 0 0 0 0 0 0 0 0 0 0 0 0 0 0
0 0 0 0 0 0 0 -0 0 0 0 0 0 0 0 0 0 -0 0 0 0 0 0 0 0 0 0 0 0 0 0 0 0 0 0 0 0 0 0 0 0 0 0 0 0 0 0 0 0
0 0 0 0 0 0 0 0 0 0 0 0 0 0 0 0 0 0 0 0 0 0 0 0 0 0 0 0 0 0 0 0 0 0 0 0 0 0 0 0 0 0 0 0 0 0 0 0 0
0 0 0 0 0 0 0 0 0 0 0 0 0 0 0 0 0 0 0 0 0 0 0 0 0 0 0 0 0 0 0 0 0 0 0 0 0 0 0 0 0 0 0 0 0 0 0 0 0
0 0 0 0 0 0 0 0 0 0 0 0 0 0 0 0 0 0 0 0 0 0 0 0 0 0 0 0 0 0 0 0 0 0 0 0 0 0 0 0 0 0 0 0 0 0 0 0 0
0 0 0 0 0 0 0 0 0 0 0 0 0 0 0 0 0 0 0 0 0 0 0 0 0 0 0 0 0 0 0 0 0 0 0 0 0 0 0 0 0 0 0 0 0 0 0 0 0
0 0 0 0 0 0 0 0 0 0 0 0 0 0 0 0 0 0 0 0 0 0 0 0 0 0 0 0 0 0 0 0 0 0 0 0 0 0 0 0 0 0 0 0 0 0 0 0 0
0 0 0 0 0 0 0 0 0 0 0 0 0 0 0 0 0 0 0 0 0 0 0 0 0 0 0 0 0 0 0 0 0 0 0 0 0 0 0 0 0 0 0 0 0 0 0 0 0
0 0 0 0 0 0 0 0 0 0 0 0 0 0 0 0 0 0 0 0 0 0 0 0 0 0 0 0 0 0 0 0 0 0 0 0 0 0 0 0 0 0 0 0 0 0 0 0 0
0 0 0 0 0 0 0 0 0 0 0 0 0 0 0 0 0 0 0 0 0 0 0 0 0 0 0 0 0 0 0 0 0 0 0 0 0 0 0 0 0 0 0 0 0 0 0 0 0
0 0 0 0 0 0 0 0 0 0 0 0 0 0 0 0 0 0 0 0 0 0 0 0 0 0 0 0 0 0 0 0 0 0 0 0 0 0 0 0 0 0 0 0 0 0 0 0 0
Wind_Speed_500mb
13 15 8 3 6 7 3 6 3 6 4 3 9 6 5 10 3 4 32 28 23 19 17 23 30 41 36 21 24 21 13 5 19 25 29 29 36 34 35 35 35 35 35 37 38 39 39 41 42
12 11 2 6 8 4 6 4 9 8 13 24 15 10 5 4 8 17 36 27 24 26 23 18 30 42 27 23 21 16 9 5 20 26 29 33 30 33 33 34 35 36 35 37 38 39 41 42 43
14 8 2 7 6 7 7 7 9 10 24 7 8 6 6 7 13 34 26 30 27 28 25 26 44 38 34 27 16 11 2 6 8 27 28 31 30 31 32 33 33 33 36 38 39 40 41 42 43
10 1 8 6 7 6 5 6 12 23 6 6 10 9 8 9 29 20 32 27 26 26 26 31 34 33 32 24 10 8 3 17 26 28 28 26 29 30 32 33 33 35 36 37 39 39 39 41 43
9 1 6 5 3 3 5 9 29 10 11 9 10 9 10 24 17 23 28 26 22 22 25 20 30 29 33 27 16 10 7 17 25 29 25 27 28 30 30 31 33 34 35 37 38 37 38 39 41
1 3 5 5 5 2 4 19 18 8 10 13 8 18 11 24 19 29 27 25 23 22 25 23 33 38 33 27 21 15 9 24 24 28 25 26 28 28 29 29 32 32 33 35 35 35 36 39 40
5 6 6 6 5 1 9 22 12 12 12 6 5 10 8 28 28 29 27 24 20 22 23 23 32 35 29 23 30 22 13 23 25 27 25 25 26 26 26 29 30 31 32 32 32 33 35 37 38
6 8 6 5 8 6 14 20 9 11 7 10 15 6 7 34 38 36 31 27 26 26 26 27 26 40 38 40 36 26 18 24 28 26 23 23 23 24 26 26 28 28 29 29 29 30 32 34 36
6 7 5 10 12 7 21 8 13 9 11 16 12 10 7 30 41 39 35 31 28 27 30 30 29 33 48 39 30 22 20 28 26 25 24 23 22 21 22 23 24 25 25 26 26 28 29 32 34
6 6 14 11 10 9 24 13 27 11 9 12 16 20 14 30 42 38 36 33 32 32 31 31 32 34 46 44 34 24 22 21 25 24 23 22 21 20 19 19 20 21 21 23 23 24 26 29 31
8 8 8 6 11 8 23 13 20 17 7 20 22 26 23 36 44 36 33 28 24 29 29 28 28 32 41 49 38 34 25 27 25 24 23 22 20 19 18 17 17 18 19 18 19 20 22 24 27
3 5 4 4 8 15 20 22 14 24 12 8 17 16 28 39 45 39 36 32 33 32 30 27 27 31 38 47 42 31 26 28 25 25 24 21 18 16 15 15 15 15 14 13 14 15 16 18 22
5 5 3 3 10 12 23 15 10 23 24 12 13 20 29 37 41 36 34 32 33 33 31 28 28 30 35 39 42 34 28 29 26 25 23 20 18 16 15 14 13 12 11 10 8 9 10 12 15
12 8 5 6 12 16 10 7 9 13 22 16 14 18 26 35 39 39 42 39 38 34 31 29 29 30 32 35 35 32 33 30 28 25 24 22 20 19 17 15 14 12 11 8 5 3 3 5 8
16 8 3 4 7 7 8 6 12 13 19 19 20 21 25 34 41 42 33 34 32 31 31 27 28 29 29 31 31 33 34 29 28 27 26 26 23 21 21 19 17 15 14 12 9 7 4 2 3
8 9 5 2 7 3 9 12 5 17 22 25 26 28 28 36 42 40 38 34 32 34 32 31 28 28 30 31 32 34 35 32 30 30 30 29 27 26 25 23 22 21 20 17 15 13 11 9 8
10 8 6 4 2 2 5 11 3 10 23 25 30 33 36 38 43 45 43 39 37 33 33 32 31 29 30 33 35 36 37 36 35 34 33 32 30 29 28 27 27 26 25 23 21 20 18 16 15
12 9 3 7 2 2 5 17 9 9 18 31 33 38 43 46 46 43 45 45 43 40 37 35 33 33 34 37 39 40 40 40 39 37 36 36 34 32 31 32 31 30 30 28 26 25 24 23 23
12 9 8 3 3 6 10 13 24 21 27 35 40 43 51 55 45 46 46 48 49 49 48 45 41 40 43 42 42 43 41 40 39 38 38 39 37 36 35 35 35 34 33 31 31 31 30 28 27
9 8 6 1 4 4 7 21 21 19 25 49 56 54 52 51 54 52 53 55 57 55 52 50 49 48 46 42 40 40 37 39 38 39 41 41 41 40 39 38 38 37 37 37 36 34 33 32 30
4 11 8 3 3 4 10 15 12 8 20 42 52 57 54 52 54 57 59 60 62 67 61 57 55 51 48 46 45 46 45 44 43 44 42 41 41 42 41 41 42 42 42 41 39 38 37 35 34
10 10 11 11 5 5 4 9 12 10 16 15 38 42 55 57 57 60 62 65 66 63 63 65 59 56 54 52 51 50 47 43 38 37 36 39 41 42 43 44 45 45 45 45 42 41 41 41 39
8 12 11 7 7 3 4 3 14 7 12 12 19 8 11 30 47 61 70 68 68 66 66 65 63 64 59 56 54 53 51 45 42 41 41 41 42 43 44 45 46 48 48 46 46 46 45 44 43
22 14 14 9 6 3 6 8 11 5 1 11 17 30 25 14 18 26 38 61 71 73 73 71 68 65 65 62 59 57 53 49 49 47 45 43 41 43 44 46 47 47 49 49 48 47 48 47 47
6 15 5 5 3 10 7 3 16 12 11 8 20 29 13 4 11 12 19 35 56 65 76 76 72 71 67 66 64 59 56 52 53 50 47 47 45 44 40 43 45 46 46 47 49 50 50 49 49
15 15 11 14 9 6 6 11 7 8 15 15 19 30 30 22 20 16 7 8 25 42 54 69 71 71 69 66 63 61 59 57 56 53 51 51 48 44 41 44 45 46 47 49 50 52 51 50 49
12 11 11 13 5 5 7 12 10 1 10 16 32 54 53 50 48 37 23 9 5 19 31 43 57 64 66 65 64 63 61 60 57 54 53 54 52 49 48 49 48 48 49 50 51 52 51 50 49
9 17 7 4 9 7 7 8 9 10 7 5 18 39 49 43 41 40 41 31 15 2 12 23 34 44 52 59 64 63 60 59 57 56 58 58 55 54 53 53 51 50 51 52 53 52 50 51 49
6 6 7 9 6 10 6 10 11 19 16 16 16 32 38 37 40 38 37 35 32 21 6 7 20 30 39 47 55 61 61 61 61 61 59 59 58 58 59 57 54 53 53 53 53 52 51 51 49
0 12 11 9 10 4 3 8 10 18 20 24 19 25 28 32 33 30 30 30 27 24 19 9 5 15 24 34 45 54 60 62 64 64 61 61 62 62 62 61 60 57 55 55 54 53 52 51 49
Wind_Direction_500mb
328 336 354 92 65 66 202 228 117 144 175 179 147 165 155 84 135 146 152 147 145 147 130 143 142 143 145 115 128 119 124 84 106 96 95 94 86 87 89 86 86 78 75 74 70 67 66 62 60
327 331 360 88 91 95 255 159 186 187 138 123 115 111 85 126 130 147 156 157 148 142 131 141 160 153 142 118 125 139 121 123 96 104 97 94 92 91 89 88 84 79 74 72 69 64 62 60 60
327 325 137 94 109 182 209 193 152 139 145 142 123 96 114 149 150 149 156 157 154 154 140 134 147 149 145 143 124 146 149 129 158 112 102 95 96 93 92 87 83 79 73 70 67 63 62 61 60
320 277 69 91 191 221 217 188 141 141 188 166 144 92 115 139 144 149 155 153 156 162 162 146 159 157 162 155 162 160 120 119 110 107 103 103 98 95 88 83 80 77 75 73 70 67 64 62 60
327 69 75 91 229 250 259 175 152 141 146 156 161 164 143 153 154 153 158 158 159 171 177 158 155 146 163 169 167 163 147 136 124 118 112 105 102 96 90 85 82 80 78 75 71 68 66 65 63
302 95 86 180 227 232 161 161 149 141 149 158 165 149 155 176 169 162 166 164 166 174 183 181 153 158 164 169 169 172 168 138 130 126 117 115 105 99 94 89 86 84 81 77 74 72 69 66 64
135 92 173 155 201 145 165 161 173 161 160 200 185 135 197 179 174 176 174 169 177 178 177 176 165 156 156 161 171 180 172 149 141 136 133 120 112 107 102 94 89 86 82 78 75 73 70 68 65
163 97 123 185 194 223 169 162 183 165 172 167 179 198 212 188 178 180 179 178 183 179 172 170 164 159 157 158 170 168 185 166 163 150 130 121 115 112 104 99 94 89 86 81 78 74 71 69 66
159 77 182 198 164 203 162 150 159 162 150 179 205 225 216 184 185 186 187 186 182 178 173 174 171 172 165 172 177 171 184 183 166 145 135 130 127 117 109 103 99 96 92 86 81 76 73 70 66
138 131 214 191 188 181 177 177 164 156 168 211 229 229 223 192 194 197 194 189 186 181 179 175 179 181 183 181 186 196 200 165 162 157 146 141 136 128 120 112 106 102 96 90 84 80 75 71 68
174 185 200 224 208 184 168 165 171 153 231 217 223 224 208 197 198 202 200 196 189 186 182 179 184 188 191 188 192 201 198 169 169 166 159 155 149 146 139 131 125 115 105 96 89 82 76 71 67
180 214 192 194 205 165 170 159 176 197 226 225 243 233 211 204 199 201 199 198 192 190 186 184 188 192 194 195 195 204 190 180 177 174 171 168 165 164 155 147 139 128 119 109 96 88 78 70 65
180 177 134 279 179 180 160 177 188 220 226 252 245 219 212 207 199 197 201 201 201 197 191 187 188 192 196 199 201 203 189 183 185 184 184 183 181 180 175 170 164 154 148 136 119 100 82 68 60
183 139 118 132 141 159 150 185 185 225 212 219 211 208 207 207 201 198 205 201 201 198 198 193 191 193 197 203 209 201 195 196 197 196 199 200 200 198 197 196 194 188 187 181 172 149 96 65 47
133 101 94 100 151 152 158 243 225 218 199 206 198 204 203 204 205 211 214 213 204 201 203 200 199 198 200 203 206 206 201 200 204 211 213 213 213 214 211 213 215 216 217 217 222 232 243 288 337
98 61 128 283 172 169 161 261 309 216 204 208 203 210 210 210 215 215 213 215 212 207 208 205 204 203 206 206 206 207 209 212 217 220 220 221 222 223 224 223 228 231 233 234 240 248 255 267 284
9 173 186 281 156 148 160 252 254 216 216 222 219 219 220 219 222 221 218 217 216 216 212 211 210 210 213 214 214 216 219 222 225 225 225 226 227 227 229 230 233 237 237 241 247 253 260 268 276
176 129 178 204 246 58 236 257 245 225 226 238 240 233 230 229 229 224 222 219 216 218 219 217 215 216 218 219 220 223 225 226 226 228 228 229 231 232 234 235 238 240 241 245 253 258 262 267 272
143 132 153 221 360 200 246 266 266 243 241 249 246 240 237 237 236 233 228 228 222 220 222 221 220 218 222 224 225 228 232 234 234 234 235 235 236 236 237 239 240 243 246 248 251 256 262 268 273
120 125 198 31 35 168 350 278 262 238 238 245 249 246 242 240 240 234 231 229 227 229 228 226 227 224 226 229 232 237 240 241 241 240 240 240 240 241 241 243 245 246 248 250 254 258 263 267 271
136 155 170 147 66 68 335 287 282 280 245 255 251 249 249 245 244 238 233 232 231 229 228 231 232 230 230 231 230 234 235 237 237 240 243 245 245 246 246 246 246 248 248 250 252 254 260 263 266
165 184 129 121 92 222 17 276 300 293 299 279 271 259 254 248 244 244 239 235 235 235 233 233 234 233 233 232 233 238 243 248 250 252 252 250 250 250 250 249 249 250 251 250 253 254 256 259 262
191 137 120 105 99 29 319 65 268 2 311 317 338 335 305 261 253 249 246 243 243 239 236 236 235 234 234 235 237 241 244 246 245 245 246 247 249 249 251 251 251 252 253 253 252 253 257 259 261
148 86 51 61 79 353 253 143 281 243 160 294 311 322 310 272 280 256 253 238 238 238 237 235 236 237 235 235 238 241 244 244 246 246 248 251 253 252 252 253 254 254 253 253 254 255 255 257 260
107 103 31 9 17 221 336 127 253 281 273 254 303 340 8 114 331 278 267 240 229 230 232 233 234 236 236 236 239 242 245 245 248 248 249 250 253 255 258 259 257 258 258 257 255 255 256 257 260
187 153 155 183 192 212 66 234 252 293 10 81 67 66 68 53 36 26 331 255 226 230 232 231 233 235 236 238 241 243 245 246 248 249 250 252 254 257 255 254 252 253 254 254 254 255 256 257 259
194 180 144 105 18 88 212 282 326 322 15 62 73 72 60 55 52 49 40 32 225 227 234 233 235 237 238 239 242 245 247 249 251 253 253 254 253 254 253 254 254 252 252 253 254 255 256 256 258
177 153 85 3 131 232 241 269 197 196 123 68 60 60 47 52 51 48 45 47 53 124 221 227 232 237 241 242 244 247 250 253 255 254 254 255 255 254 254 255 256 254 254 254 254 255 255 255 256
135 173 66 117 139 160 154 251 199 172 185 139 95 58 40 51 43 44 43 44 47 49 48 226 229 231 235 238 242 246 250 252 254 254 254 255 256 254 254 255 256 255 255 255 255 256 255 255 254
337 177 154 143 214 231 141 265 168 167 165 122 100 50 53 51 48 39 34 38 40 44 47 38 283 251 244 242 243 245 249 251 252 254 255 255 256 255 255 255 254 253 254 255 255 255 255 255 254
Wind_Speed_850mb
13 15 8 3 6 7 3 6 3 6 4 3 9 6 5 10 3 4 32 28 23 19 17 23 30 41 36 21 24 21 13 5 19 25 29 29 36 34 35 35 35 35 35 37 38 39 39 41 42
12 11 2 6 8 4 6 4 9 8 13 24 15 10 5 4 8 17 36 27 24 26 23 18 30 42 27 23 21 16 9 5 20 26 29 33 30 33 33 34 35 36 35 37 38 39 41 42 43
14 8 2 7 6 7 7 7 9 10 24 7 8 6 6 7 13 34 26 30 27 28 25 26 44 38 34 27 16 11 2 6 8 27 28 31 30 31 32 33 33 33 36 38 39 40 41 42 43
10 1 8 6 7 6 5 6 12 23 6 6 10 9 8 9 29 20 32 27 26 26 26 31 34 33 32 24 10 8 3 17 26 28 28 26 29 30 32 33 33 35 36 37 39 39 39 41 43
9 1 6 5 3 3 5 9 29 10 11 9 10 9 10 24 17 23 28 26 22 22 25 20 30 29 33 27 16 10 7 17 25 29 25 27 28 30 30 31 33 34 35 37 38 37 38 39 41
1 3 5 5 5 2 4 19 18 8 10 13 8 18 11 24 19 29 27 25 23 22 25 23 33 38 33 27 21 15 9 24 24 28 25 26 28 28 29 29 32 32 33 35 35 35 36 39 40
5 6 6 6 5 1 9 22 12 12 12 6 5 10 8 28 28 29 27 24 20 22 23 23 32 35 29 23 30 22 13 23 25 27 25 25 26 26 26 29 30 31 32 32 32 33 35 37 38
6 8 6 5 8 6 14 20 9 11 7 10 15 6 7 34 38 36 31 27 26 26 26 27 26 40 38 40 36 26 18 24 28 26 23 23 23 24 26 26 28 28 29 29 29 30 32 34 36
6 7 5 10 12 7 21 8 13 9 11 16 12 10 7 30 41 39 35 31 28 27 30 30 29 33 48 39 30 22 20 28 26 25 24 23 22 21 22 23 24 25 25 26 26 28 29 32 34
6 6 14 11 10 9 24 13 27 11 9 12 16 20 14 30 42 38 36 33 32 32 31 31 32 34 46 44 34 24 22 21 25 24 23 22 21 20 19 19 20 21 21 23 23 24 26 29 31
8 8 8 6 11 8 23 13 20 17 7 20 22 26 23 36 44 36 33 28 24 29 29 28 28 32 41 49 38 34 25 27 25 24 23 22 20 19 18 17 17 18 19 18 19 20 22 24 27
3 5 4 4 8 15 20 22 14 24 12 8 17 16 28 39 45 39 36 32 33 32 30 27 27 31 38 47 42 31 26 28 25 25 24 21 18 16 15 15 15 15 14 13 14 15 16 18 22
5 5 3 3 10 12 23 15 10 23 24 12 13 20 29 37 41 36 34 32 33 33 31 28 28 30 35 39 42 34 28 29 26 25 23 20 18 16 15 14 13 12 11 10 8 9 10 12 15
12 8 5 6 12 16 10 7 9 13 22 16 14 18 26 35 39 39 42 39 38 34 31 29 29 30 32 35 35 32 33 30 28 25 24 22 20 19 17 15 14 12 11 8 5 3 3 5 8
16 8 3 4 7 7 8 6 12 13 19 19 20 21 25 34 41 42 33 34 32 31 31 27 28 29 29 31 31 33 34 29 28 27 26 26 23 21 21 19 17 15 14 12 9 7 4 2 3
8 9 5 2 7 3 9 12 5 17 22 25 26 28 28 36 42 40 38 34 32 34 32 31 28 28 30 31 32 34 35 32 30 30 30 29 27 26 25 23 22 21 20 17 15 13 11 9 8
10 8 6 4 2 2 5 11 3 10 23 25 30 33 36 38 43 45 43 39 37 33 33 32 31 29 30 33 35 36 37 36 35 34 33 32 30 29 28 27 27 26 25 23 21 20 18 16 15
12 9 3 7 2 2 5 17 9 9 18 31 33 38 43 46 46 43 45 45 43 40 37 35 33 33 34 37 39 40 40 40 39 37 36 36 34 32 31 32 31 30 30 28 26 25 24 23 23
12 9 8 3 3 6 10 13 24 21 27 35 40 43 51 55 45 46 46 48 49 49 48 45 41 40 43 42 42 43 41 40 39 38 38 39 37 36 35 35 35 34 33 31 31 31 30 28 27
9 8 6 1 4 4 7 21 21 19 25 49 56 54 52 51 54 52 53 55 57 55 52 50 49 48 46 42 40 40 37 39 38 39 41 41 41 40 39 38 38 37 37 37 36 34 33 32 30
4 11 8 3 3 4 10 15 12 8 20 42 52 57 54 52 54 57 59 60 62 67 61 57 55 51 48 46 45 46 45 44 43 44 42 41 41 42 41 41 42 42 42 41 39 38 37 35 34
10 10 11 11 5 5 4 9 12 10 16 15 38 42 55 57 57 60 62 65 66 63 63 65 59 56 54 52 51 50 47 43 38 37 36 39 41 42 43 44 45 45 45 45 42 41 41 41 39
8 12 11 7 7 3 4 3 14 7 12 12 19 8 11 30 47 61 70 68 68 66 66 65 63 64 59 56 54 53 51 45 42 41 41 41 42 43 44 45 46 48 48 46 46 46 45 44 43
22 14 14 9 6 3 6 8 11 5 1 11 17 30 25 14 18 26 38 61 71 73 73 71 68 65 65 62 59 57 53 49 49 47 45 43 41 43 44 46 47 47 49 49 48 47 48 47 47
6 15 5 5 3 10 7 3 16 12 11 8 20 29 13 4 11 12 19 35 56 65 76 76 72 71 67 66 64 59 56 52 53 50 47 47 45 44 40 43 45 46 46 47 49 50 50 49 49
15 15 11 14 9 6 6 11 7 8 15 15 19 30 30 22 20 16 7 8 25 42 54 69 71 71 69 66 63 61 59 57 56 53 51 51 48 44 41 44 45 46 47 49 50 52 51 50 49
12 11 11 13 5 5 7 12 10 1 10 16 32 54 53 50 48 37 23 9 5 19 31 43 57 64 66 65 64 63 61 60 57 54 53 54 52 49 48 49 48 48 49 50 51 52 51 50 49
9 17 7 4 9 7 7 8 9 10 7 5 18 39 49 43 41 40 41 31 15 2 12 23 34 44 52 59 64 63 60 59 57 56 58 58 55 54 53 53 51 50 51 52 53 52 50 51 49
6 6 7 9 6 10 6 10 11 19 16 16 16 32 38 37 40 38 37 35 32 21 6 7 20 30 39 47 55 61 61 61 61 61 59 59 58 58 59 57 54 53 53 53 53 52 51 51 49
0 12 11 9 10 4 3 8 10 18 20 24 19 25 28 32 33 30 30 30 27 24 19 9 5 15 24 34 45 54 60 62 64 64 61 61 62 62 62 61 60 57 55 55 54 53 52 51 49
Wind_Direction_850mb
328 336 354 92 65 66 202 228 117 144 175 179 147 165 155 84 135 146 152 147 145 147 130 143 142 143 145 115 128 119 124 84 106 96 95 94 86 87 89 86 86 78 75 74 70 67 66 62 60
327 331 360 88 91 95 255 159 186 187 138 123 115 111 85 126 130 147 156 157 148 142 131 141 160 153 142 118 125 139 121 123 96 104 97 94 92 91 89 88 84 79 74 72 69 64 62 60 60
327 325 137 94 109 182 209 193 152 139 145 142 123 96 114 149 150 149 156 157 154 154 140 134 147 149 145 143 124 146 149 129 158 112 102 95 96 93 92 87 83 79 73 70 67 63 62 61 60
320 277 69 91 191 221 217 188 141 141 188 166 144 92 115 139 144 149 155 153 156 162 162 146 159 157 162 155 162 160 120 119 110 107 103 103 98 95 88 83 80 77 75 73 70 67 64 62 60
327 69 75 91 229 250 259 175 152 141 146 156 161 164 143 153 154 153 158 158 159 171 177 158 155 146 163 169 167 163 147 136 124 118 112 105 102 96 90 85 82 80 78 75 71 68 66 65 63
302 95 86 180 227 232 161 161 149 141 149 158 165 149 155 176 169 162 166 164 166 174 183 181 153 158 164 169 169 172 168 138 130 126 117 115 105 99 94 89 86 84 81 77 74 72 69 66 64
135 92 173 155 201 145 165 161 173 161 160 200 185 135 197 179 174 176 174 169 177 178 177 176 165 156 156 161 171 180 172 149 141 136 133 120 112 107 102 94 89 86 82 78 75 73 70 68 65
163 97 123 185 194 223 169 162 183 165 172 167 179 198 212 188 178 180 179 178 183 179 172 170 164 159 157 158 170 168 185 166 163 150 130 121 115 112 104 99 94 89 86 81 78 74 71 69 66
159 77 182 198 164 203 162 150 159 162 150 179 205 225 216 184 185 186 187 186 182 178 173 174 171 172 165 172 177 171 184 183 166 145 135 130 127 117 109 103 99 96 92 86 81 76 73 70 66
138 131 214 191 188 181 177 177 164 156 168 211 229 229 223 192 194 197 194 189 186 181 179 175 179 181 183 181 186 196 200 165 162 157 146 141 136 128 120 112 106 102 96 90 84 80 75 71 68
174 185 200 224 208 184 168 165 171 153 231 217 223 224 208 197 198 202 200 196 189 186 182 179 184 188 191 188 192 201 198 169 169 166 159 155 149 146 139 131 125 115 105 96 89 82 76 71 67
180 214 192 194 205 165 170 159 176 197 226 225 243 233 211 204 199 201 199 198 192 190 186 184 188 192 194 195 195 204 190 180 177 174 171 168 165 164 155 147 139 128 119 109 96 88 78 70 65
180 177 134 279 179 180 160 177 188 220 226 252 245 219 212 207 199 197 201 201 201 197 191 187 188 192 196 199 201 203 189 183 185 184 184 183 181 180 175 170 164 154 148 136 119 100 82 68 60
183 139 118 132 141 159 150 185 185 225 212 219 211 208 207 207 201 198 205 201 201 198 198 193 191 193 197 203 209 201 195 196 197 196 199 200 200 198 197 196 194 188 187 181 172 149 96 65 47
133 101 94 100 151 152 158 243 225 218 199 206 198 204 203 204 205 211 214 213 204 201 203 200 199 198 200 203 206 206 201 200 204 211 213 213 213 214 211 213 215 216 217 217 222 232 243 288 337
98 61 128 283 172 169 161 261 309 216 204 208 203 210 210 210 215 215 213 215 212 207 208 205 204 203 206 206 206 207 209 212 217 220 220 221 222 223 224 223 228 231 233 234 240 248 255 267 284
9 173 186 281 156 148 160 252 254 216 216 222 219 219 220 219 222 221 218 217 216 216 212 211 210 210 213 214 214 216 219 222 225 225 225 226 227 227 229 230 233 237 237 241 247 253 260 268 276
176 129 178 204 246 58 236 257 245 225 226 238 240 233 230 229 229 224 222 219 216 218 219 217 215 216 218 219 220 223 225 226 226 228 228 229 231 232 234 235 238 240 241 245 253 258 262 267 272
143 132 153 221 360 200 246 266 266 243 241 249 246 240 237 237 236 233 228 228 222 220 222 221 220 218 222 224 225 228 232 234 234 234 235 235 236 236 237 239 240 243 246 248 251 256 262 268 273
120 125 198 31 35 168 350 278 262 238 238 245 249 246 242 240 240 234 231 229 227 229 228 226 227 224 226 229 232 237 240 241 241 240 240 240 240 241 241 243 245 246 248 250 254 258 263 267 271
136 155 170 147 66 68 335 287 282 280 245 255 251 249 249 245 244 238 233 232 231 229 228 231 232 230 230 231 230 234 235 237 237 240 243 245 245 246 246 246 246 248 248 250 252 254 260 263 266
165 184 129 121 92 222 17 276 300 293 299 279 271 259 254 248 244 244 239 235 235 235 233 233 234 233 233 232 233 238 243 248 250 252 252 250 250 250 250 249 249 250 251 250 253 254 256 259 262
191 137 120 105 99 29 319 65 268 2 311 317 338 335 305 261 253 249 246 243 243 239 236 236 235 234 234 235 237 241 244 246 245 245 246 247 249 249 251 251 251 252 253 253 252 253 257 259 261
148 86 51 61 79 353 253 143 281 243 160 294 311 322 310 272 280 256 253 238 238 238 237 235 236 237 235 235 238 241 244 244 246 246 248 251 253 252 252 253 254 254 253 253 254 255 255 257 260
107 103 31 9 17 221 336 127 253 281 273 254 303 340 8 114 331 278 267 240 229 230 232 233 234 236 236 236 239 242 245 245 248 248 249 250 253 255 258 259 257 258 258 257 255 255 256 257 260
187 153 155 183 192 212 66 234 252 293 10 81 67 66 68 53 36 26 331 255 226 230 232 231 233 235 236 238 241 243 245 246 248 249 250 252 254 257 255 254 252 253 254 254 254 255 256 257 259
194 180 144 105 18 88 212 282 326 322 15 62 73 72 60 55 52 49 40 32 225 227 234 233 235 237 238 239 242 245 247 249 251 253 253 254 253 254 253 254 254 252 252 253 254 255 256 256 258
177 153 85 3 131 232 241 269 197 196 123 68 60 60 47 52 51 48 45 47 53 124 221 227 232 237 241 242 244 247 250 253 255 254 254 255 255 254 254 255 256 254 254 254 254 255 255 255 256
135 173 66 117 139 160 154 251 199 172 185 139 95 58 40 51 43 44 43 44 47 49 48 226 229 231 235 238 242 246 250 252 254 254 254 255 256 254 254 255 256 255 255 255 255 256 255 255 254
337 177 154 143 214 231 141 265 168 167 165 122 100 50 53 51 48 39 34 38 40 44 47 38 283 251 244 242 243 245 249 251 252 254 255 255 256 255 255 255 254 253 254 255 255 255 255 255 254